Regional Weather Roundup
Issued by NWS

Home | Current Version | Previous Version | Graphics & Text | Print | Product List | Glossary On
Versions: 1 2 3 4 5 6 7 8 9 10 11 12 13 14 15 16 17 18 19 20 21 22 23 24 25 26 27 28 29 30 31 32 33 34 35 36 37 38 39 40 41 42 43 44 45 46 47 48 49 50
000
ASUS43 KMKX 242100
RWRWI

WISCONSIN REGIONAL WEATHER ROUNDUP
NATIONAL WEATHER SERVICE MILWAUKEE/SULLIVAN WI
400 PM CDT SUN JUL 24 2016

NOTE: "FAIR" INDICATES FEW OR NO CLOUDS BELOW 12,000 FEET WITH NO
SIGNIFICANT WEATHER AND/OR OBSTRUCTIONS TO VISIBILITY.

WIZ001-002-006>008-014>016-023>028-242200-
NORTHWEST WISCONSIN

CITY           SKY/WX    TMP DP  RH WIND       PRES   REMARKS
SUPERIOR ARPT  MOSUNNY   82  62  50 NW14      29.81R HX  82
ASHLAND        SUNNY     84  62  47 W13G23    29.81R HX  85
HAYWARD        SUNNY     81  61  50 NW9       29.85S HX  82
SIREN          SUNNY     81  57  44 NW13      29.88R HX  81
CUMBERLAND     SUNNY     79  59  50 NW10G18   29.87R HX  80
RICE LAKE      SUNNY     80  62  55 W10G16    29.88R HX  81
CHETEK         MOSUNNY   82  65  58 NW8       29.86S HX  83
LADYSMITH      MOSUNNY   82  65  56 W13       29.86S HX  84
EAU CLAIRE     NOT AVBL
MENOMONIE      MOSUNNY   86  63  46 W16       29.87R HX  87
NEW RICHMOND   MOSUNNY   82  61  49 W13G20    29.89R HX  83
OSCEOLA        SUNNY     82  62  50 NW8G16    29.91R HX  82
$$

WIZ003>005-009-010-017-018-242200-
NORTH CENTRAL WISCONSIN

CITY           SKY/WX    TMP DP  RH WIND       PRES   REMARKS
MANITOWISH WTR PTSUNNY   82  64  54 W15       29.83S HX  83
ARBOR VITAE    SUNNY     82  63  52 W10G16      N/A  HX  84
WOODRUFF       SUNNY     82  63  52 W10G16      N/A  HX  84
RHINELANDER    MOSUNNY   82  62  50 W14       29.85R HX  83
EAGLE RIVER    MOSUNNY   82  58  45 W14G20    29.83R HX  82
LAND O LAKES   MOSUNNY   82  62  49 W10       29.83R HX  83
PHILLIPS       CLOUDY    81  65  58 W6        29.84S HX  82
TOMAHAWK       MOSUNNY   81  63  53 W7        29.85R HX  82
MEDFORD        PTSUNNY   81  65  59 W6        29.86R HX  83
MERRILL        MOSUNNY   83  66  56 NW9       29.84R HX  85
$$

WIZ029-030-035-036-043>047-242200-
CENTRAL WISCONSIN

CITY           SKY/WX    TMP DP  RH WIND       PRES   REMARKS
WAUSAU         SUNNY     84  62  47 W15       29.83R HX  85
MOSINEE        MOSUNNY  N/A  66   0 W10G18    29.85S HX  80
MARSHFIELD     SUNNY     83  65  54 W13       29.86R HX  85
STEVENS POINT  MOSUNNY   83  67  58 W9G21     29.84S HX  86
WAUPACA        SUNNY     90  71  53 W12       29.81S HX  95
WAUTOMA        MOSUNNY   88  76  67 W12       29.82S HX  99
WISC RAPIDS    MOSUNNY   88  65  46 NW12      29.86R HX  90
CAMP DOUGLAS   NOT AVBL
$$

WIZ011>013-019>022-031-037>040-048>050-242200-
NORTHEAST WISCONSIN

CITY           SKY/WX    TMP DP  RH WIND       PRES   REMARKS
ANTIGO         MOSUNNY   83  71  65 W15       29.84S HX  87
SHAWANO        PTSUNNY   84  75  75 W9        29.80S HX  92
OCONTO         CLOUDY    81  81 100 W5        29.77F HX  91
STURGEON BAY   CLOUDY    78  74  87 S6        29.79S HX  81
GREEN BAY      MOSUNNY   84  78  82 W16G24    29.79R HX  95
MANITOWOC      NOT AVBL
APPLETON       PTSUNNY   86  72  62 NW13      29.80R HX  92
CLINTONVILLE   SUNNY     86  70  58 W13G22    29.81S HX  90
OSHKOSH        MOSUNNY   89  76  65 W9G17     29.80R HX 100
$$

WIZ032>034-041-042-053>061-242200-
SOUTHWEST WISCONSIN

CITY           SKY/WX    TMP DP  RH WIND       PRES   REMARKS
LA CROSSE      SUNNY     89  65  44 W9        29.86R HX  91
SPARTA         SUNNY     87  68  53 W12       29.87R HX  90
VIROQUA        SUNNY     85  68  56 W8        29.90R HX  88
BOSCOBEL       SUNNY     90  71  53 W8        29.86R HX  96
PRAIRIE DU CHI CLOUDY    87  62  42 NW3       29.86S HX  88
PLATTEVILLE    MOSUNNY   87  80  80 W3        29.87F HX 102
$$

WIZ056-057-062-063-064-067-068-242200-
SOUTH CENTRAL WISCONSIN

CITY           SKY/WX    TMP DP  RH WIND       PRES   REMARKS
REEDSBURG      MOSUNNY   88  74  63 W12G18    29.84S HX  96
BARABOO/DELLS  MOSUNNY   88  71  56 NW9       29.85R HX  93
LONE ROCK      NOT AVBL
MINERAL POINT  MOSUNNY   90  79  70 SW8       29.87F HX 105
MADISON        PTSUNNY   89  77  67 VRB7      29.83S HX 101
MIDDLETON      PTSUNNY   90  79  70 W6        29.85F HX 105
WATERTOWN      PTSUNNY   89  80  75 SW10G16   29.81S HX 106
MONROE         PTSUNNY   88  79  74 W16G22    29.86S HX 102
JANESVILLE     NOT AVBL
$$

WIZ051-052-058>065-066-070>072-242200-
SOUTHEAST WISCONSIN

CITY           SKY/WX    TMP DP  RH WIND       PRES   REMARKS
MILWAUKEE      CLOUDY    90  79  70 S16G22    29.81S HX 106
WAUKESHA       NOT AVBL
MILWAUKEE/TIMM NOT AVBL
RACINE         CLOUDY    83  74  74 SW14G20   29.85R THUNDER HX  89
BURLINGTON     CLOUDY    93  80  65 W10G18    29.84R HX 111
KENOSHA        CLOUDY    82  68  62 E5        29.85R THUNDER HX  85
FOND DU LAC    MOSUNNY   90  78  68 W13G21    29.81R HX 104
SHEBOYGAN      MOSUNNY   83  75  77 S5        29.79F HX  90
WEST BEND      PTSUNNY   90  77  66 W8        29.82S HX 102
JUNEAU         PTSUNNY   87  80  79 SW10      29.83F HX 103
$$

LSZ147-162-242200-
LAKE SUPERIOR

STATION/POSITION TIME  TEMP    WIND        PRES    WAVE
                       AIR SEA DIR/SP/G            HT/PER
                 (UTC) (F)     (DEG/KT/KT) (MB)    (FT/S)
W MID LAKE BUOY  1950   64 58  230/ 12/ 14 1006.5S   1/ 3
DEVILS ISLAND    2000   70     250/ 21/ 24 1007.8R
PORT WING        1940   77     250/ 12/ 18 1009.5
SAXON HARBOR     2040   81     290/ 12/ 19 1008.5S
$$

LMZ867-665-643>646-242200-
LAKE MICHIGAN

STATION/POSITION TIME  TEMP    WIND        PRES    WAVE
                       AIR SEA DIR/SP/G            HT/PER
                 (UTC) (F)     (DEG/KT/KT) (MB)    (FT/S)
CHAMBERS ISLAND  2000   75     190/  3/  8 1007.8F
S GREEN BAY BUOY 2000   76 74  190/  6/ 10   N/A
N MID LAKE BUOY  1950   69 68  210/ 12/ 14 1007.8F   3/ 5
NORTHPORT PIER   2000   75     170/  3/  7 1008.1
KEWAUNEE LAKESHO 2000   63     180/ 13/ 15 1008.5F
SHEBOYGAN LAKESH 2000   72     180/ 23/ 24 1009.2F
PORT WASHINGTON  2040   71     180/  4/  6 1010.2F
MILWAUKEE LAKESH 2010   67     160/  9/ 10   N/A
S MID LAKE BUOY  1950   76 72  150/ 17/ 19 1009.4F   3/ 5
KENOSHA   LAKESH 2000   79     190/ 10/ 16 1009.8S
$$

TC  - TEMPERATURE IN CELSIUS
VSB - VISIBILITY IN STATUTE MILES
WCI - WIND CHILL INDEX
HX  - HEAT INDEX





USA.gov is the U.S. government's official web portal to all federal, state and local government web resources and services.